Location: Chippewa Lake
(41.0698°N, 81.9010°W)
Time: 02:16:43
(UTC+00:00)

Cosmos 1190 Rocket - Pass Details

Date: 09 May 2021
Orbit: 756 x 780 km, 74.1° (Epoch: 24 June)

Event Time Altitude Azimuth Distance (km) Brightness Sun altitude
Rises 09:19:56 0° 335° (NNW) 3,226 7.4 -10.0°
Reaches altitude 10° 09:22:21 10° 331° (NNW) 2,299 6.5 -9.6°
Maximum altitude 09:27:24 54° 256° (WSW) 927 4.1 -8.8°
Drops below altitude 10° 09:32:28 10° 180° (S) 2,298 6.2 -8.0°
Sets 09:34:53 0° 175° (S) 3,224 7.0 -7.6°
